Weather History for Chippewa, MI

Change the Weather History Date:

Tuesday, December 4, 2012

  Actual Average Record
Temperature  
Mean Temperature 40 °F -  
Max Temperature 55 °F 33 °F 60 °F (1982)
Min Temperature 24 °F 18 °F 4 °F (1989)
Degree Days  
Heating Degree Days 24    
Moisture  
Dew Point 35 °F    
Average Humidity 89    
Maximum Humidity 100    
Minimum Humidity 70    
Precipitation  
Precipitation 0.00 in - - ()
Sea Level Pressure  
Sea Level Pressure 29.85 in    
Wind  
Wind Speed 11 mph (West)    
Max Wind Speed 24 mph    
Max Gust Speed 37 mph    
Visibility 9 miles    
Events      
Averages and records for this station are not official NWS values.
T = Trace of Precipitation, MM = Missing Value Source: NWS Daily Summary

Daily Weather History Graph

Daily Weather History Graph

Search for Another Location

Airport:

Trip Planner

Search our weather history database for the weather conditions in past years. The results will help you decide how hot, cold, wet, or windy it might be!

Date:

Astronomy

Dec. 04, 2012 Rise Set
Actual Time 8:04 AM EST 4:52 PM EST
Civil Twilight 7:29 AM EST 5:26 PM EST
Nautical Twilight 6:52 AM EST 6:04 PM EST
Astronomical Twilight 6:15 AM EST 6:40 PM EST
Moon 10:52 PM EST (12/4) 11:46 AM EST (12/4)
Length of Visible Light 9h 56m
Length of Day
8h 48m
Waning Gibbous, 69% of the Moon is Illuminated
Dec 4
Waning Gibbous
Dec 6
Last Quarter
Dec 13
New
Dec 20
First Quarter
Dec 28
Full

Hourly Weather History & Observations

Time (EST) Temp. Windchill Dew Point Humidity Pressure Visibility Wind Dir Wind Speed Gust Speed Precip Events Conditions
12:15 AM 57.2 °F - 55.4 °F 94% 29.61 in 7.0 mi WSW 15.0 mph 20.7 mph 0.01 in   Overcast
12:35 AM 55.4 °F - 55.4 °F 100% 29.62 in 5.0 mi WSW 11.5 mph 21.9 mph 0.02 in   Overcast
12:55 AM 55.4 °F - 53.6 °F 94% 29.63 in 5.0 mi WSW 11.5 mph 21.9 mph N/A   Overcast
1:15 AM 53.6 °F - 53.6 °F 100% 29.64 in 4.0 mi West 10.4 mph - N/A   Overcast
1:35 AM 53.6 °F - 53.6 °F 100% 29.65 in 3.0 mi WSW 9.2 mph - N/A   Overcast
1:55 AM 50.0 °F - 46.4 °F 87% 29.67 in 10.0 mi NW 15.0 mph - N/A   Overcast
2:15 AM 48.2 °F - 46.4 °F 93% 29.68 in 10.0 mi NW 9.2 mph 19.6 mph N/A   Overcast
2:35 AM 48.2 °F - 46.4 °F 93% 29.69 in 10.0 mi NW 8.1 mph - N/A   Overcast
2:55 AM 46.4 °F 42.9 °F 44.6 °F 93% 29.71 in 10.0 mi NW 6.9 mph - N/A   Mostly Cloudy
3:15 AM 46.4 °F 45.2 °F 44.6 °F 93% 29.72 in 10.0 mi West 3.5 mph - N/A   Mostly Cloudy
3:35 AM 46.4 °F - 44.6 °F 93% 29.72 in 9.0 mi Calm Calm - N/A   Mostly Cloudy
3:55 AM 44.6 °F 41.4 °F 44.6 °F 100% 29.72 in 8.0 mi WNW 5.8 mph - N/A   Overcast
4:15 AM 42.8 °F - 42.8 °F 100% 29.73 in 5.0 mi Calm Calm - N/A   Mostly Cloudy
4:35 AM 42.8 °F - 42.8 °F 100% 29.74 in 3.0 mi Calm Calm - N/A   Mostly Cloudy
4:55 AM 44.6 °F 40.7 °F 44.6 °F 100% 29.74 in 5.0 mi SW 6.9 mph - N/A   Mostly Cloudy
5:15 AM 42.8 °F 39.3 °F 41.0 °F 93% 29.74 in 10.0 mi SW 5.8 mph - N/A   Partly Cloudy
5:35 AM 42.8 °F 38.0 °F 42.8 °F 100% 29.75 in 10.0 mi SW 8.1 mph - N/A   Clear
5:55 AM 42.8 °F 38.6 °F 41.0 °F 93% 29.76 in 10.0 mi WSW 6.9 mph - N/A   Clear
6:15 AM 41.0 °F 36.4 °F 41.0 °F 100% 29.75 in 10.0 mi WSW 6.9 mph - N/A   Clear
6:35 AM 41.0 °F 35.2 °F 39.2 °F 93% 29.77 in 10.0 mi SW 9.2 mph - N/A   Clear
6:55 AM 41.0 °F 34.7 °F 39.2 °F 93% 29.77 in 10.0 mi SW 10.4 mph 16.1 mph N/A   Clear
7:15 AM 39.2 °F 33.0 °F 39.2 °F 100% 29.78 in 10.0 mi WSW 9.2 mph - N/A   Clear
7:35 AM 39.2 °F 34.2 °F 37.4 °F 93% 29.79 in 10.0 mi WSW 6.9 mph - N/A   Clear
7:55 AM 39.2 °F 34.2 °F 37.4 °F 93% 29.80 in 10.0 mi SW 6.9 mph - N/A   Clear
8:15 AM 39.2 °F 34.2 °F 37.4 °F 93% 29.81 in 10.0 mi SW 6.9 mph - N/A   Clear
8:35 AM 39.2 °F 33.6 °F 37.4 °F 93% 29.81 in 10.0 mi SW 8.1 mph - N/A   Clear
8:55 AM 39.2 °F 33.0 °F 37.4 °F 93% 29.82 in 10.0 mi WSW 9.2 mph - N/A   Clear
9:15 AM 39.2 °F 34.2 °F 37.4 °F 93% 29.82 in 10.0 mi WSW 6.9 mph - N/A   Clear
9:35 AM 39.2 °F 34.2 °F 37.4 °F 93% 29.83 in 10.0 mi WSW 6.9 mph - N/A   Clear
9:55 AM 39.2 °F 33.6 °F 37.4 °F 93% 29.83 in 10.0 mi WSW 8.1 mph - N/A   Clear
10:15 AM 39.2 °F 33.0 °F 37.4 °F 93% 29.83 in 10.0 mi WSW 9.2 mph - N/A   Clear
10:35 AM 39.2 °F 33.0 °F 37.4 °F 93% 29.84 in 10.0 mi WSW 9.2 mph - N/A   Clear
10:55 AM 39.2 °F 32.5 °F 37.4 °F 93% 29.84 in 10.0 mi WSW 10.4 mph - N/A   Clear
11:15 AM 41.0 °F 35.2 °F 37.4 °F 87% 29.84 in 10.0 mi West 9.2 mph - N/A   Clear
11:35 AM 42.8 °F 36.2 °F 35.6 °F 76% 29.82 in 10.0 mi West 12.7 mph - N/A   Clear
11:55 AM 42.8 °F 38.0 °F 35.6 °F 76% 29.82 in 10.0 mi West 8.1 mph 18.4 mph N/A   Partly Cloudy
12:15 PM 42.8 °F 35.1 °F 37.4 °F 81% 29.81 in 10.0 mi West 16.1 mph 20.7 mph N/A   Mostly Cloudy
12:35 PM 42.8 °F 35.8 °F 35.6 °F 76% 29.81 in 10.0 mi West 13.8 mph 18.4 mph N/A   Overcast
12:55 PM 42.8 °F 35.4 °F 33.8 °F 70% 29.81 in 10.0 mi West 15.0 mph 19.6 mph N/A   Overcast
1:15 PM 42.8 °F 36.6 °F 35.6 °F 76% 29.81 in 10.0 mi WNW 11.5 mph 17.3 mph N/A   Mostly Cloudy
1:55 PM 41.0 °F 32.5 °F 33.8 °F 76% 29.82 in 10.0 mi NW 17.3 mph - N/A   Mostly Cloudy
2:15 PM 37.4 °F 27.8 °F 32.0 °F 81% 29.83 in 10.0 mi NW 17.3 mph - N/A   Mostly Cloudy
2:35 PM 37.4 °F 28.5 °F 30.2 °F 75% 29.84 in 10.0 mi NW 15.0 mph 25.3 mph N/A   Overcast
2:55 PM 35.6 °F 25.5 °F 30.2 °F 81% 29.85 in 10.0 mi WNW 17.3 mph - N/A   Overcast
3:15 PM 35.6 °F 24.5 °F 28.4 °F 75% 29.86 in 10.0 mi NW 20.7 mph 26.5 mph N/A   Overcast
3:35 PM 33.8 °F 23.2 °F 28.4 °F 81% 29.88 in 10.0 mi NW 17.3 mph 23.0 mph N/A   Overcast
3:55 PM 33.8 °F 23.9 °F 28.4 °F 81% 29.89 in 10.0 mi WNW 15.0 mph 24.2 mph N/A   Overcast
4:15 PM 33.8 °F 22.8 °F 26.6 °F 75% 29.91 in 10.0 mi WNW 18.4 mph 23.0 mph N/A   Overcast
4:35 PM 33.8 °F 22.8 °F 26.6 °F 75% 29.92 in 10.0 mi WNW 18.4 mph 25.3 mph N/A   Overcast
4:55 PM 32.0 °F 20.5 °F 26.6 °F 80% 29.93 in 10.0 mi WNW 18.4 mph 25.3 mph N/A   Overcast
5:15 PM 30.2 °F 18.5 °F 24.8 °F 80% 29.95 in 10.0 mi WNW 17.3 mph 32.2 mph N/A   Overcast
5:35 PM 30.2 °F 17.1 °F 24.8 °F 80% 29.95 in 10.0 mi NW 21.9 mph 27.6 mph N/A   Overcast
5:55 PM 30.2 °F 17.1 °F 23.0 °F 75% 29.96 in 10.0 mi WNW 21.9 mph 27.6 mph N/A   Overcast
6:15 PM 28.4 °F 14.1 °F 23.0 °F 80% 29.97 in 10.0 mi WNW 24.2 mph 36.8 mph N/A   Overcast
6:35 PM 28.4 °F 14.1 °F 21.2 °F 74% 29.98 in 10.0 mi WNW 24.2 mph 34.5 mph N/A   Overcast
6:55 PM 28.4 °F 15.8 °F 23.0 °F 80% 30.00 in 10.0 mi West 18.4 mph 24.2 mph N/A   Mostly Cloudy
7:15 PM 28.4 °F 15.8 °F 23.0 °F 80% 30.00 in 10.0 mi West 18.4 mph 25.3 mph N/A   Overcast
7:35 PM 28.4 °F 16.6 °F 24.8 °F 86% 30.01 in 10.0 mi West 16.1 mph 20.7 mph N/A   Overcast
7:55 PM 26.6 °F 14.3 °F 24.8 °F 93% 30.01 in 10.0 mi West 16.1 mph 24.2 mph N/A   Overcast
8:15 PM 26.6 °F 13.1 °F 23.0 °F 86% 30.01 in 10.0 mi West 19.6 mph 25.3 mph N/A   Mostly Cloudy
8:35 PM 26.6 °F 14.7 °F 24.8 °F 93% 30.02 in 8.0 mi West 15.0 mph 20.7 mph N/A   Mostly Cloudy
8:55 PM 26.6 °F 14.3 °F 24.8 °F 93% 30.02 in 5.0 mi West 16.1 mph 19.6 mph N/A   Overcast
9:15 PM 26.6 °F 14.7 °F 24.8 °F 93% 30.03 in 5.0 mi West 15.0 mph 20.7 mph N/A   Overcast
9:35 PM 26.6 °F 14.7 °F 24.8 °F 93% 30.03 in 8.0 mi West 15.0 mph 24.2 mph N/A   Overcast
9:55 PM 26.6 °F 14.3 °F 24.8 °F 93% 30.04 in 9.0 mi West 16.1 mph 21.9 mph N/A   Mostly Cloudy
10:15 PM 24.8 °F 11.5 °F 24.8 °F 100% 30.04 in 10.0 mi West 17.3 mph 21.9 mph N/A   Mostly Cloudy
10:35 PM 24.8 °F 13.4 °F 24.8 °F 100% 30.04 in 5.0 mi West 12.7 mph 19.6 mph N/A   Overcast
10:55 PM 24.8 °F 13.4 °F 24.8 °F 100% 30.05 in 8.0 mi West 12.7 mph 19.6 mph N/A   Mostly Cloudy
11:15 PM 24.8 °F 13.4 °F 24.8 °F 100% 30.05 in 7.0 mi West 12.7 mph 19.6 mph N/A   Mostly Cloudy
11:35 PM 24.8 °F 13.4 °F 23.0 °F 93% 30.06 in 4.0 mi West 12.7 mph - N/A   Mostly Cloudy
11:55 PM 24.8 °F 13.4 °F 23.0 °F 93% 30.07 in 4.0 mi West 12.7 mph - N/A   Overcast